Location: Cantaing
(50.1487°N, 3.1675°E)
Time: 09:48:50
(UTC+00:00)

Cosmos 2084 - Pass Details

Date: 14 January 2026
Orbit: 535 x 565 km, 62.8° (Epoch: 11 February)

Event Time Altitude Azimuth Distance (km) Brightness Sun altitude
Exits shadow 04:47:16 41° 128° (SE) 813 4.4 -27.1°
Maximum altitude 04:47:20 41° 125° (SE) 813 4.4 -27.1°
Drops below altitude 10° 04:51:15 10° 55° (NE) 1,846 6.6 -26.5°
Sets 04:53:32 0° 49° (NE) 2,740 7.5 -26.1°
